This is the latest recevied weather packets stored in our database for station/object N6ZHV-13. If no packets are shown the sender has not sent any weather packets the latest 10 day(s).
| Time | Temp. | Humidity | Pressure | Rain* | Wind** | Luminosity | Snow |
|---|---|---|---|---|---|---|---|
| 1777750796 | 20° C | 72% | 1014.8 hPa | 0 mm | - | - | - |
| 1777750496 | 19.44° C | 73% | 1014.9 hPa | 0 mm | - | - | - |
| 1777750196 | 19.44° C | 73% | 1015 hPa | 0 mm | - | - | - |
| 1777749896 | 19.44° C | 73% | 1015.1 hPa | 0 mm | - | - | - |
| 1777749596 | 20° C | 73% | 1015.3 hPa | 0 mm | - | - | - |
| 1777749296 | 19.44° C | 73% | 1015.3 hPa | 0 mm | - | - | - |
| 1777748996 | 19.44° C | 74% | 1015.4 hPa | 0 mm | - | - | - |
| 1777748696 | 19.44° C | 75% | 1015.5 hPa | 0 mm | - | - | - |
| 1777748396 | 19.44° C | 75% | 1015.5 hPa | 0 mm | - | - | - |
| 1777748096 | 19.44° C | 73% | 1015.5 hPa | 0 mm | - | - | - |
| 1777747796 | 18.89° C | 74% | 1015.4 hPa | 0 mm | - | - | - |
| 1777747496 | 19.44° C | 75% | 1015.4 hPa | 0 mm | - | - | - |
| 1777747196 | 18.89° C | 74% | 1015.5 hPa | 0 mm | - | - | - |
| 1777746896 | 18.89° C | 76% | 1015.5 hPa | 0 mm | - | - | - |
| 1777746596 | 18.89° C | 75% | 1015.6 hPa | 0 mm | - | - | - |
| 1777746296 | 18.33° C | 77% | 1015.6 hPa | 0 mm | - | - | - |
| 1777745996 | 18.33° C | 77% | 1014.3 hPa | 0 mm | - | - | - |
| 1777745696 | 18.33° C | 78% | 1015.9 hPa | 0 mm | - | - | - |
| 1777745396 | 18.33° C | 79% | 1016.1 hPa | 0 mm | - | - | - |
| 1777745096 | 18.33° C | 78% | 1016 hPa | 0 mm | - | - | - |
| 1777744796 | 17.78° C | 79% | 1015.9 hPa | 0 mm | - | - | - |
| 1777744496 | 17.78° C | 78% | 1016 hPa | 0 mm | - | - | - |
| 1777744196 | 17.78° C | 79% | 1016.1 hPa | 0 mm | - | - | - |
| 1777743896 | 17.22° C | 80% | 1016.1 hPa | 0 mm | - | - | - |
| 1777743596 | 17.22° C | 81% | 1016.1 hPa | 0 mm | - | - | - |
* Rain latest hour (hover to see other rain measurements)
** Current wind speed in m/s (hover to see current wind gust speed)